Weather in Krinichnoe

Ukraine / Odesa District     45°32′09″N   28°40′04″E
temp.,
°C
wind,
m/s
gust,
m/s
humid.,
%
clouds,
%
prec.,
mm/h
press.,
hPa
HPBL,
m
7 august, sun
sun700:00+24n47565 0.0 1012116
03:00+23ne47571 0.1 1012147
06:00+21ne47745 0.0 1012137
09:00+27ne68440 0.0 1013531
12:00+33ne673158 0.0 10132597
15:00+34e672430 0.0 10122674
18:00+32ese662462 0.0 10121136
21:00+29nnw5833100 0.0 1014150
8 august, mon
mon800:00+27n9144639 0.0 1014445
03:00+23n712651 0.0 1015387
06:00+20nnw712805 0.0 1016296
09:00+25n78585 0.0 1017574
12:00+33nne66305 0.0 10161602
15:00+35nne872449 0.0 10142846
18:00+34e76202 0.0 10142321
21:00+28e22265 0.0 101511
9 august, tue
tue900:00+26n58410 0.0 1015102
03:00+24nne610470 0.0 1014180
06:00+22n47525 0.0 1015121
09:00+28nne453223 0.0 1015480
12:00+34nne55223 0.0 10151603
15:00+36n66195 0.0 10133155
18:00+34ene672096 0.0 10121195
21:00+28nnw1015445 0.0 1014572
10 august, wed
wed1000:00+24n12166198 0.0 1015655
03:00+20n10167499 0.0 1015488
06:00+19n101675100 0.0 1015489
09:00+22n101261100 0.0 1016740
12:00+28n101144100 0.0 10151303
15:00+30n101039100 0.0 10151608
18:00+28n10114333 0.0 10141305
21:00+23n1014595 0.1 1015668
11 august, thu
thu1100:00+19nnw914685 0.2 1015461
03:00+19nnw9156677 0.2 1014474
06:00+19n8146936 0.0 1014454
09:00+23n10125562 0.0 1014776
12:00+26n10104324 0.0 10141357
15:00+30n88345 0.0 10131838
18:00+29nnw883441 0.0 10131704
21:00+25nnw7124592 0.0 1014460